Location: Unspecified
(0.0000°N, 0.0000°E)
Time: 22:47:00
(UTC+00:00)

Shinsei - Pass Details

Date: 16 December 2023
Orbit: 869 x 1860 km, 32.1° (Epoch: 01 March)

Event Time Altitude Azimuth Distance (km) Brightness Sun altitude
Rises 22:52:48 0° 224° (SW) 5,218 13.7 -62.1°
Reaches altitude 10° 22:56:34 10° 217° (SW) 4,209 13.1 -62.6°
Enters shadow 22:59:18 19° 210° (SSW) 3,513 12.5 -62.9°
